Weather History for Port Angeles, WA

Change the Weather History Date:

Monday, January 20, 2014

  Actual Average Record
Temperature  
Mean Temperature 36 °F -  
Max Temperature 43 °F 47 °F 57 °F (1968)
Min Temperature 30 °F 34 °F 16 °F (1954)
Degree Days  
Heating Degree Days 28    
Moisture  
Dew Point 35 °F    
Average Humidity 85    
Maximum Humidity 93    
Minimum Humidity 76    
Precipitation  
Precipitation 0.00 in - - ()
Sea Level Pressure  
Sea Level Pressure 30.32 in    
Wind  
Wind Speed 5 mph (ESE)    
Max Wind Speed 8 mph    
Max Gust Speed -    
Visibility 10 miles    
Events      
Averages and records for this station are not official NWS values.
T = Trace of Precipitation, MM = Missing Value Source: NWS Daily Summary

Daily Weather History Graph

Daily Weather History Graph

Search for Another Location

Airport:

Trip Planner

Search our weather history database for the weather conditions in past years. The results will help you decide how hot, cold, wet, or windy it might be!

Date:

Astronomy

Jan. 20, 2014 Rise Set
Actual Time 7:55 AM PST 4:55 PM PST
Civil Twilight 7:20 AM PST 5:30 PM PST
Nautical Twilight 6:42 AM PST 6:08 PM PST
Astronomical Twilight 6:05 AM PST 6:45 PM PST
Moon 10:00 PM PST (1/20) 9:34 AM PST (1/20)
Length of Visible Light 10h 09m
Length of Day
9h 00m
Waning Gibbous, 82% of the Moon is Illuminated
Jan 20
Waning Gibbous
Jan 23
Last Quarter
Jan 30
New
Feb 6
First Quarter
Feb 14
Full

Hourly Weather History & Observations

Time (PST) Temp. Windchill Dew Point Humidity Pressure Visibility Wind Dir Wind Speed Gust Speed Precip Events Conditions
12:29 AM 42.1 °F 38.4 °F 37.9 °F 85% 30.31 in 10.0 mi ESE 5.8 mph - N/A   Overcast
12:53 AM 42.1 °F 39.2 °F 37.9 °F 85% 30.32 in 10.0 mi ESE 4.6 mph - N/A   Overcast
1:20 AM 42.1 °F 37.7 °F 37.9 °F 85% 30.32 in 10.0 mi ESE 6.9 mph - N/A   Overcast
1:53 AM 42.1 °F 37.1 °F 37.9 °F 85% 30.32 in 10.0 mi ESE 8.1 mph - N/A   Overcast
2:53 AM 42.1 °F 38.4 °F 37.9 °F 85% 30.33 in 10.0 mi East 5.8 mph - N/A   Overcast
3:53 AM 42.1 °F 39.2 °F 37.9 °F 85% 30.33 in 10.0 mi SE 4.6 mph - N/A   Overcast
4:53 AM 41.0 °F 38.0 °F 37.0 °F 86% 30.33 in 10.0 mi ESE 4.6 mph - N/A   Overcast
5:53 AM 41.0 °F - 37.0 °F 86% 30.33 in 10.0 mi Calm Calm - N/A   Overcast
6:13 AM 41.0 °F 39.0 °F 37.0 °F 86% 30.32 in 10.0 mi ESE 3.5 mph - N/A   Overcast
6:53 AM 41.0 °F 39.0 °F 37.0 °F 86% 30.34 in 10.0 mi East 3.5 mph - N/A   Overcast
7:53 AM 41.0 °F 38.0 °F 37.0 °F 86% 30.35 in 10.0 mi SE 4.6 mph - N/A   Overcast
8:53 AM 42.1 °F 37.7 °F 37.0 °F 82% 30.35 in 10.0 mi ESE 6.9 mph - N/A   Overcast
9:53 AM 42.1 °F 40.2 °F 37.0 °F 82% 30.36 in 10.0 mi East 3.5 mph - N/A   Overcast
10:53 AM 42.1 °F 38.4 °F 36.0 °F 79% 30.35 in 10.0 mi SE 5.8 mph - N/A   Overcast
11:53 AM 42.1 °F 38.4 °F 36.0 °F 79% 30.34 in 10.0 mi ENE 5.8 mph - N/A   Overcast
12:53 PM 42.1 °F 40.2 °F 36.0 °F 79% 30.32 in 10.0 mi East 3.5 mph - N/A   Overcast
1:53 PM 42.1 °F 40.2 °F 36.0 °F 79% 30.32 in 10.0 mi East 3.5 mph - N/A   Overcast
2:53 PM 43.0 °F 38.8 °F 36.0 °F 76% 30.31 in 10.0 mi SE 6.9 mph - N/A   Scattered Clouds
3:53 PM 43.0 °F 39.5 °F 36.0 °F 76% 30.31 in 10.0 mi SSE 5.8 mph - N/A   Clear
4:53 PM 37.9 °F 34.4 °F 34.0 °F 86% 30.29 in 10.0 mi SE 4.6 mph - N/A   Clear
5:53 PM 37.0 °F - 35.1 °F 93% 30.30 in 10.0 mi Calm Calm - N/A   Clear
6:53 PM 33.1 °F - 30.9 °F 92% 30.31 in 8.0 mi Calm Calm - N/A   Clear
7:53 PM 32.0 °F - 30.0 °F 92% 30.31 in 10.0 mi Calm Calm - N/A   Clear
8:53 PM 30.9 °F 27.5 °F 28.9 °F 92% 30.31 in 7.0 mi SSE 3.5 mph - N/A   Clear
9:53 PM 30.9 °F - 28.0 °F 89% 30.31 in 9.0 mi Calm Calm - N/A   Clear
10:53 PM 33.1 °F - 30.9 °F 92% 30.32 in 9.0 mi Calm Calm - N/A   Clear
11:53 PM 32.0 °F 28.7 °F 30.0 °F 92% 30.32 in 9.0 mi South 3.5 mph - N/A   Clear